Regional Weather Roundup
Issued by NWS Cleveland, OH

Home | Current Version | Previous Version | Graphics & Text | Print | Product List | Glossary On
Versions: 1 2 3 4 5 6 7 8 9 10 11 12 13 14 15 16 17 18 19 20 21 22 23 24 25 26 27 28 29 30 31 32 33 34 35 36 37 38 39 40 41 42 43 44 45 46 47 48 49 50
000
ASUS41 KCLE 210200
RWRCLE
OHIO REGIONAL WEATHER ROUNDUP
NATIONAL WEATHER SERVICE WILMINGTON, OH
900 PM EST FRI JAN 20 2017

NOTE: "FAIR" INDICATES FEW OR NO CLOUDS BELOW 12,000 FEET WITH NO
SIGNIFICANT WEATHER AND/OR OBSTRUCTIONS TO VISIBILITY.

OHZ001>008-015>018-024>027-034-035-043-044-210300-
   NORTHWEST OHIO

CITY           SKY/WX    TMP DP  RH WIND       PRES   REMARKS
DEFIANCE       CLOUDY    46  45  96 S3        29.74F
FINDLAY        CLOUDY    49  46  90 S3        29.75S FOG
TOLEDO EXPRESS CLOUDY    46  46 100 S6        29.75S FOG
TOLEDO EXEC    CLOUDY    47  47 100 S5        29.76S FOG
LIMA           CLOUDY    49  48  97 S5        29.74F
$$

OHZ009>014-019>023-028>033-038-089-210300-
   NORTHEAST OHIO

CITY           SKY/WX    TMP DP  RH WIND       PRES   REMARKS
CLE-HOPKINS    CLOUDY    52  47  83 S3        29.79S
CLE-LAKEFRONT  CLOUDY    44  43  96 CALM      29.76S FOG
CUY CO. ARPT   FOG       46  46 100 CALM      29.77S VSB 1/8
LORAIN-ELYRIA  CLOUDY    48  46  93 SW5       29.77S
ASHTABULA      CLOUDY    48  48 100 CALM      29.77R FOG
AKRON-CANTON   MOCLDY    50  45  83 SW7       29.78R
WOOSTER        NOT AVBL
MANSFIELD      MOCLDY    47  46  97 SW6       29.77S
YOUNGSTOWN     MOCLDY    50  48  93 CALM      29.78S
$$

OHZ042-051>053-060>062-070>072-077>081-210300-
  SOUTHWEST OHIO

CITY           SKY/WX    TMP DP  RH WIND       PRES   REMARKS
CINC-COVINGTON CLOUDY    52  48  86 SE5       29.74F
CINC-LUNKEN    FAIR      49  49 100 CALM      29.76F
HAMILTON       FAIR      49  47  93 E3        29.75F
DAYTON         NOT AVBL
WRIGHT-PAT AFB MOCLDY    49  49 100 N3        29.76F
DAYTON GENERAL NOT AVBL
WILMINGTON     FAIR      50  46  86 SE3       29.77S
$$

OHZ036-037-039>041-045>050-054>059-063>069-073>076-082>088-210300-
  CENTRAL AND SOUTHEAST OHIO

CITY           SKY/WX    TMP DP  RH WIND       PRES   REMARKS
COLUMBUS       CLOUDY    53  48  83 S3        29.78S
OSU AIRPORT    FAIR      50  49  96 S3        29.77F
BOLTON FIELD   NOT AVBL
RICKENBACK AFB NOT AVBL
NEWARK         MOCLDY    46  44  93 CALM      29.78S
MARION         FAIR      48  43  82 SW8       29.77S
LANCASTER      CLOUDY    47  45  93 CALM      29.79S
ZANESVILLE     MOCLDY    49  47  93 CALM      29.80R
NEW PHILLY     CLOUDY    48  47  96 CALM      29.80R
$$




USA.gov is the U.S. government's official web portal to all federal, state and local government web resources and services.